TimeEST,TemperatureF,Dew PointF,Humidity,Sea Level PressureIn,VisibilityMPH,Wind Direction,Wind SpeedMPH,Gust SpeedMPH,PrecipitationIn,Events,Conditions,WindDirDegrees,DateUTC
12:53 AM,26.1,12.9,58,30.21,10.0,NW,4.6,-,N/A,,Clear,310,2013-02-17 05:53:00
1:53 AM,25.0,16.0,69,30.22,10.0,WNW,3.5,-,N/A,,Clear,290,2013-02-17 06:53:00
2:53 AM,25.0,16.0,69,30.22,10.0,Calm,Calm,-,N/A,,Clear,0,2013-02-17 07:53:00
3:53 AM,23.0,16.0,74,30.22,10.0,West,4.6,-,N/A,,Clear,260,2013-02-17 08:53:00
4:53 AM,23.0,16.0,74,30.23,10.0,Calm,Calm,-,N/A,,Clear,0,2013-02-17 09:53:00
5:53 AM,21.9,16.0,78,30.25,10.0,Calm,Calm,-,N/A,,Clear,0,2013-02-17 10:53:00
6:53 AM,21.2,15.8,80,30.24,10.0,Calm,Calm,-,N/A,,Clear,0,2013-02-17 11:53:00
7:53 AM,21.2,17.6,86,30.26,10.0,Calm,Calm,-,N/A,,Clear,0,2013-02-17 12:53:00
8:53 AM,26.1,17.1,69,30.31,10.0,SSW,3.5,-,N/A,,Clear,200,2013-02-17 13:53:00
9:53 AM,32.0,14.0,48,30.32,10.0,Calm,Calm,-,N/A,,Clear,0,2013-02-17 14:53:00
10:53 AM,37.0,14.0,39,30.32,10.0,Variable,4.6,-,N/A,,Partly Cloudy,0,2013-02-17 15:53:00
11:53 AM,39.9,12.0,32,30.31,10.0,NNW,12.7,20.7,N/A,,Partly Cloudy,330,2013-02-17 16:53:00
12:53 PM,41.0,12.0,31,30.29,10.0,WNW,6.9,-,N/A,,Partly Cloudy,300,2013-02-17 17:53:00
1:53 PM,42.1,12.0,29,30.26,10.0,Calm,Calm,-,N/A,,Partly Cloudy,0,2013-02-17 18:53:00
2:53 PM,46.0,10.9,24,30.24,10.0,Calm,Calm,-,N/A,,Scattered Clouds,0,2013-02-17 19:53:00
3:53 PM,46.9,12.0,24,30.23,10.0,NW,6.9,-,N/A,,Scattered Clouds,310,2013-02-17 20:53:00
4:53 PM,46.0,12.0,25,30.23,10.0,Variable,3.5,-,N/A,,Partly Cloudy,0,2013-02-17 21:53:00
5:53 PM,45.0,12.9,27,30.23,10.0,Calm,Calm,-,N/A,,Partly Cloudy,0,2013-02-17 22:53:00
6:53 PM,42.8,15.8,34,30.23,10.0,Calm,Calm,-,N/A,,Scattered Clouds,0,2013-02-17 23:53:00
7:53 PM,39.0,19.9,46,30.25,10.0,Calm,Calm,-,N/A,,Scattered Clouds,0,2013-02-18 00:53:00
8:53 PM,37.0,19.9,50,30.26,10.0,Calm,Calm,-,N/A,,Scattered Clouds,0,2013-02-18 01:53:00
9:53 PM,33.1,21.9,64,30.27,10.0,Calm,Calm,-,N/A,,Scattered Clouds,0,2013-02-18 02:53:00
10:53 PM,30.9,25.0,79,30.28,10.0,Calm,Calm,-,N/A,,Scattered Clouds,0,2013-02-18 03:53:00